Date,TemperatureHighF,TemperatureAvgF,TemperatureLowF,DewpointHighF,DewpointAvgF,DewpointLowF,HumidityHigh,HumidityAvg,HumidityLow,PressureMaxIn,PressureMinIn,WindSpeedMaxMPH,WindSpeedAvgMPH,GustSpeedMaxMPH,PrecipitationSumIn
2012-1-1,58.5,44.9,36.7,49.8,38.3,32.5,100,80,45,29.50,29.03,15,4,15,0.08
2012-1-2,49.6,38.9,27.9,49.6,23.4,12.6,100,55,39,29.15,28.97,25,4,25,0.00
2012-1-3,35.8,24.0,12.4,14.8,7.7,-4.0,62,50,42,29.41,29.12,34,9,34,0.00
2012-1-4,30.2,18.1,8.8,10.4,0.9,-7.3,52,46,41,29.56,29.32,22,6,22,0.00
2012-1-5,41.7,29.1,21.2,19.8,11.1,4.3,50,46,41,29.32,29.15,22,4,22,0.00
2012-1-6,55.8,39.1,27.3,34.4,22.4,9.8,64,51,41,29.32,29.12,20,4,20,0.00
2012-1-7,63.5,47.6,38.1,37.3,29.2,23.5,63,50,38,29.32,29.06,17,4,17,0.00
2012-1-8,47.3,37.2,27.0,25.4,18.7,9.1,54,47,42,29.71,29.32,21,7,21,0.00
2012-1-9,47.5,30.9,23.7,23.8,14.2,9.5,60,50,39,29.74,29.38,12,3,12,0.00
2012-1-10,51.8,36.8,28.2,27.6,20.3,16.5,67,52,41,29.38,29.18,19,5,19,0.00
2012-1-11,56.7,37.0,29.5,31.0,21.2,15.1,62,53,37,29.50,29.35,16,2,16,0.00
2012-1-12,44.6,40.1,36.1,44.6,37.6,27.2,100,91,60,29.38,28.76,38,8,38,1.22
2012-1-13,52.3,37.9,26.1,52.2,27.2,8.9,100,68,45,29.09,28.64,34,7,34,0.00
2012-1-14,39.6,27.9,19.9,18.1,10.3,2.8,53,47,41,29.41,29.09,26,7,26,0.00
2012-1-15,28.9,14.3,9.1,9.3,-3.1,-8.3,51,45,41,29.97,29.41,32,11,32,0.00
2012-1-16,36.0,21.3,7.2,32.7,5.4,-10.2,100,50,42,30.03,25.42,20,5,20,0.00
2012-1-17,45.9,39.2,32.7,45.9,37.1,28.6,100,93,61,29.59,28.91,14,4,14,0.39
2012-1-18,48.0,35.3,19.0,48.0,19.3,1.2,100,54,39,29.56,28.91,31,11,31,0.24
2012-1-19,39.9,24.5,12.6,31.6,11.1,-0.9,100,58,41,29.68,29.35,17,2,17,0.24
2012-1-20,42.3,27.2,18.3,32.5,15.0,0.6,100,63,41,29.71,29.32,31,5,31,0.24
2012-1-21,22.6,20.2,17.6,17.4,10.8,2.3,86,67,48,29.71,29.38,24,8,24,0.00
2012-1-22,36.3,22.3,10.0,19.0,10.2,0.6,65,60,49,30.00,29.71,17,6,17,0.00
2012-1-23,51.4,39.1,26.6,51.3,34.4,16.1,100,84,63,29.94,29.29,21,5,21,0.67
2012-1-24,63.9,47.6,36.7,50.7,39.3,25.7,100,76,44,29.47,29.29,19,4,19,0.00
2012-1-25,47.5,36.7,32.2,26.7,21.7,19.2,64,54,44,29.68,29.47,21,7,25,0.00
2012-1-26,41.5,34.9,30.7,38.7,25.8,20.3,100,71,50,29.62,29.32,12,0,12,0.16
2012-1-27,56.8,47.4,38.7,56.8,44.7,24.1,100,92,54,29.32,28.67,30,6,30,0.47
2012-1-28,55.9,40.1,33.6,31.8,24.3,18.5,72,54,40,29.41,29.09,26,5,26,0.00
2012-1-29,49.6,36.8,29.8,25.9,17.8,11.1,61,46,39,29.53,29.32,21,4,21,0.00
2012-1-30,50.5,34.3,27.1,26.5,16.0,8.8,59,47,39,29.71,29.35,39,7,39,0.00
2012-1-31,60.4,41.9,29.5,33.6,24.0,11.4,67,49,37,29.71,29.41,15,2,15,0.00
2012-2-1,60.4,49.5,41.5,43.3,33.2,27.5,92,54,45,29.41,29.21,16,4,16,0.04
2012-2-2,45.3,38.0,33.3,33.3,26.1,22.5,100,63,48,29.59,29.35,17,6,17,0.00
2012-2-3,46.9,32.9,23.7,33.3,16.1,10.9,100,51,39,29.83,29.59,25,8,25,0.00
2012-2-4,51.8,36.7,27.0,29.5,19.4,13.0,56,49,41,29.74,29.50,20,5,20,0.00
2012-2-5,47.5,29.8,21.9,23.6,13.0,7.8,59,50,39,29.56,29.47,14,3,14,0.00
2012-2-6,55.4,36.3,23.2,30.5,20.2,10.1,61,53,37,29.53,29.29,17,4,17,0.00
2012-2-7,55.9,40.3,31.3,32.0,22.5,15.7,60,49,40,29.62,29.29,21,8,25,0.00
2012-2-8,44.1,31.5,24.6,28.9,16.1,10.9,95,53,40,29.74,29.47,12,2,12,0.00
2012-2-9,51.6,36.2,27.0,28.7,19.5,11.9,94,53,39,29.53,29.38,18,4,18,0.00
2012-2-10,55.9,39.2,29.7,37.7,22.9,11.9,93,53,37,29.53,29.29,15,3,16,0.00
2012-2-11,37.4,33.9,29.1,33.7,27.1,13.7,100,78,51,29.29,28.88,22,3,23,0.08
2012-2-12,36.5,23.8,15.6,15.6,5.7,-1.3,52,45,42,29.29,28.91,35,14,35,0.00
2012-2-13,48.9,32.3,17.8,25.1,14.3,0.9,60,47,39,29.38,29.23,22,5,22,0.00
2012-2-14,43.0,35.6,29.5,29.5,18.6,13.6,73,50,41,29.53,22.68,10,1,10,0.00
2012-2-15,52.3,41.0,34.9,41.2,31.2,22.4,100,70,48,29.68,29.47,12,3,12,0.00
2012-2-16,44.1,36.4,28.4,40.1,26.7,20.7,100,69,50,29.71,29.44,12,3,12,0.12
2012-2-17,54.5,42.9,33.6,47.3,32.8,16.0,100,72,43,29.44,29.23,21,4,21,0.04
2012-2-18,58.6,38.5,30.7,32.5,21.3,15.9,79,50,37,29.41,29.26,17,5,17,0.00
2012-2-19,58.6,37.5,29.1,32.5,23.1,13.3,97,59,37,29.47,29.35,17,2,17,0.00
2012-2-20,51.3,33.3,25.7,26.8,14.4,7.8,53,46,39,29.74,29.35,26,7,26,0.00
2012-2-21,51.1,34.8,21.6,40.6,20.3,7.0,100,57,39,29.77,29.23,17,3,17,0.04
2012-2-22,59.5,45.4,38.1,45.7,35.6,25.7,100,74,39,29.23,28.94,20,3,20,0.00
2012-2-23,65.8,46.8,34.9,47.7,33.4,16.9,100,64,38,29.18,28.73,26,5,26,0.00
2012-2-24,39.0,35.9,32.7,39.0,32.6,18.3,100,90,49,29.18,28.61,17,3,17,0.55
2012-2-25,52.5,37.9,30.2,37.0,20.6,11.4,100,50,39,29.26,28.64,38,12,38,0.16
2012-2-26,50.2,33.0,25.9,26.2,12.9,7.2,46,43,39,29.88,29.26,38,9,38,0.00
2012-2-27,57.9,39.4,25.5,33.0,21.7,6.7,64,49,39,29.88,29.44,22,4,22,0.00
2012-2-28,59.4,42.2,34.2,33.1,21.7,15.1,60,44,37,29.83,29.44,28,9,28,0.00
2012-2-29,40.5,34.7,30.6,34.7,25.2,14.6,100,72,45,29.83,29.21,22,4,22,0.04
2012-3-1,38.5,34.7,26.1,38.5,32.8,18.3,100,93,70,29.35,29.03,26,6,26,0.47
2012-3-2,41.0,31.7,25.2,34.8,21.7,17.6,97,67,50,29.53,29.29,12,0,12,0.04
2012-3-3,54.9,44.3,35.6,54.9,39.0,21.5,100,84,43,29.29,28.76,21,3,21,0.24
2012-3-4,43.9,37.8,31.1,22.8,19.8,16.0,54,48,43,29.06,28.91,16,1,16,0.00
2012-3-5,55.6,33.6,22.5,29.9,15.5,4.3,66,48,38,29.74,29.06,25,7,25,0.00
2012-3-6,56.8,30.7,17.4,29.9,12.5,2.8,62,47,37,30.06,29.74,21,6,21,0.00
2012-3-7,66.7,45.2,31.3,39.5,31.0,19.8,77,59,37,30.06,29.77,21,7,21,0.00
2012-3-8,72.1,54.3,46.0,47.3,41.6,38.4,93,64,41,29.77,29.23,26,10,26,0.00
2012-3-9,54.5,41.6,32.7,52.5,26.2,15.5,100,56,39,29.59,29.18,31,9,31,0.16
2012-3-10,59.5,35.3,26.4,33.3,16.1,8.5,53,45,37,29.97,29.59,26,7,26,0.00
2012-3-11,67.5,42.5,29.5,38.7,25.0,14.5,73,51,35,29.97,29.74,21,4,21,0.00
2012-3-12,87.1,53.3,38.1,54.5,34.5,25.9,73,51,33,29.74,29.56,12,4,12,0.00
2012-3-13,61.5,51.6,46.9,53.7,44.9,34.5,100,80,56,29.56,29.32,12,3,12,0.00
2012-3-14,83.3,56.7,41.0,51.8,43.3,32.8,100,67,34,29.65,29.32,22,7,22,0.04
2012-3-15,58.6,43.6,39.7,37.4,31.9,29.7,79,64,45,29.77,29.65,15,2,15,0.00
2012-3-16,46.2,41.8,36.9,44.4,34.0,28.2,100,74,61,29.77,29.53,12,0,12,0.00
2012-3-17,55.2,47.4,39.9,48.2,40.1,33.0,100,79,49,29.80,29.56,12,1,12,0.00
2012-3-18,73.8,49.5,39.0,51.4,41.8,38.3,100,80,38,29.80,29.62,15,2,15,0.00
2012-3-19,87.4,57.9,43.5,56.8,45.9,33.8,100,70,33,29.68,29.59,12,2,12,0.00
2012-3-20,86.5,60.8,49.8,57.3,46.3,33.9,100,62,36,29.77,29.68,15,2,15,0.00
2012-3-21,78.3,60.5,52.3,62.4,53.3,47.5,100,81,41,29.83,29.71,17,1,17,0.00
2012-3-22,85.5,63.9,55.4,62.6,53.3,46.8,100,74,38,29.74,29.44,12,2,12,0.00
2012-3-23,78.3,61.7,56.1,57.7,46.2,33.4,100,61,35,29.53,29.44,14,2,14,0.00
2012-3-24,70.0,54.3,45.1,41.9,30.8,24.3,57,41,35,29.53,29.44,17,3,17,0.00
2012-3-25,52.7,46.4,42.3,36.5,31.5,25.0,72,56,48,29.44,29.09,17,4,17,0.00
2012-3-26,62.2,44.8,31.1,43.7,29.3,11.1,100,58,36,29.41,29.03,35,11,35,0.00
2012-3-27,55.0,38.4,25.3,29.8,16.5,4.9,43,41,38,29.62,29.41,34,11,34,0.00
2012-3-28,55.6,45.0,34.9,48.4,31.0,14.1,100,60,41,29.56,28.94,22,3,22,0.20
2012-3-29,53.4,47.6,38.1,48.0,32.0,21.6,100,55,46,29.32,28.91,26,10,26,0.00
2012-3-30,59.5,45.8,35.8,33.1,24.8,18.5,53,44,37,29.41,29.32,26,6,26,0.00
2012-3-31,42.4,38.8,34.3,38.7,32.3,24.3,100,79,50,29.44,29.26,20,2,20,0.16
2012-4-1,52.5,41.8,32.5,42.4,33.9,28.6,100,77,46,29.29,29.00,17,2,17,0.20
2012-4-2,58.8,45.8,39.2,43.0,31.5,17.7,100,62,37,29.21,28.94,32,10,32,0.04
2012-4-3,63.5,47.6,32.0,36.1,24.0,12.1,43,39,36,29.26,29.12,27,8,27,0.00
2012-4-4,70.3,54.5,42.8,42.4,29.8,21.5,49,39,35,29.12,28.85,32,10,35,0.00
2012-4-5,59.5,45.7,35.4,34.6,25.5,18.8,60,45,37,29.29,29.06,21,8,21,0.00
2012-4-6,60.6,45.0,31.1,34.1,23.5,15.3,52,43,37,29.38,29.23,24,8,25,0.00
2012-4-7,64.2,46.6,33.1,36.7,24.0,13.0,49,41,36,29.41,29.26,34,8,34,0.00
2012-4-8,63.7,48.4,38.8,36.1,28.3,23.1,60,46,36,29.38,29.03,28,4,28,0.00
2012-4-9,64.2,52.0,41.9,36.7,28.8,22.8,54,41,36,29.03,28.91,26,7,26,0.00
2012-4-10,67.6,51.5,39.9,40.5,27.3,18.1,45,39,36,29.15,29.00,27,4,27,0.00
2012-4-11,65.8,48.3,38.5,39.4,28.7,22.4,68,47,37,29.23,29.12,20,5,20,0.00
2012-4-12,65.3,46.0,38.5,40.1,34.7,30.8,100,67,38,29.50,29.23,26,6,26,0.16
2012-4-13,67.6,49.7,34.9,40.5,34.7,26.5,100,62,35,29.59,29.44,20,4,20,0.00
2012-4-14,75.4,56.3,42.4,46.1,34.4,25.3,64,44,35,29.59,29.41,17,5,17,0.00
2012-4-15,76.1,62.0,50.2,50.0,44.8,39.5,82,55,38,29.44,29.32,16,3,16,0.00
2012-4-16,87.8,67.5,52.9,57.4,49.5,45.0,100,56,33,29.44,29.32,12,4,12,0.00
2012-4-17,86.5,67.2,51.8,58.6,47.8,32.3,100,57,33,29.53,29.29,30,9,30,0.00
2012-4-18,72.3,56.7,48.6,43.9,33.0,24.7,63,41,36,29.65,29.53,28,7,28,0.00
2012-4-19,68.7,55.2,46.2,43.3,39.4,36.6,77,57,40,29.53,29.41,16,3,16,0.00
2012-4-20,73.4,56.9,45.3,51.8,43.3,37.6,100,65,36,29.47,29.29,17,3,17,0.00
2012-4-21,75.7,60.6,53.2,60.6,52.3,45.0,100,78,42,29.29,29.12,12,2,12,0.00
2012-4-22,59.2,53.6,45.0,59.2,50.2,42.2,100,90,56,29.15,28.88,29,6,29,1.61
2012-4-23,60.1,52.3,45.0,60.1,47.6,33.7,100,85,60,28.88,28.61,18,7,18,1.77
2012-4-24,58.8,49.4,41.0,37.8,31.9,27.5,68,52,39,29.09,28.76,22,6,22,0.00
2012-4-25,68.0,51.7,40.1,45.3,35.8,27.6,100,58,36,29.29,29.09,14,2,14,0.00
2012-4-26,63.3,49.7,37.2,53.4,37.9,25.4,100,66,38,29.35,28.94,12,1,12,0.00
2012-4-27,61.3,50.2,37.4,54.1,33.2,17.5,100,55,37,29.47,28.91,31,10,31,0.04
2012-4-28,64.4,48.0,34.5,36.6,25.9,17.2,53,42,35,29.59,29.44,20,6,20,0.00
2012-4-29,65.1,50.7,35.8,36.8,26.8,14.9,52,39,35,29.65,29.41,26,6,26,0.00
2012-4-30,67.6,50.0,36.1,38.7,26.6,15.3,51,40,35,29.77,29.65,15,3,15,0.00
2012-5-1,54.7,49.6,46.2,54.5,44.3,29.8,100,84,50,29.68,29.35,21,4,21,0.59
2012-5-2,58.3,50.3,44.2,44.9,40.9,36.8,94,71,51,29.62,29.53,15,2,15,0.00
2012-5-3,51.6,49.6,48.0,51.4,48.7,42.6,100,97,77,29.62,29.53,11,0,11,0.20
2012-5-4,61.7,54.5,48.9,59.1,53.7,0.0,100,97,70,29.53,29.29,11,0,11,0.12
2012-5-5,59.4,55.1,51.8,55.4,51.5,46.9,100,89,65,29.47,29.32,0,0,0,0.00
2012-5-6,66.2,55.1,47.1,53.1,44.5,37.5,100,71,45,29.53,29.47,11,1,11,0.00
2012-5-7,73.2,56.7,46.9,53.1,43.0,32.6,100,65,36,29.56,29.50,12,2,12,0.00
2012-5-8,59.4,54.3,50.2,56.3,45.5,36.6,100,74,53,29.53,29.29,18,2,18,0.04
2012-5-9,59.9,58.3,56.3,59.9,58.3,56.3,100,100,100,29.29,28.97,9,1,9,1.81
2012-5-10,69.8,56.9,46.0,60.4,46.4,31.8,100,72,42,29.15,28.82,26,5,26,0.35
2012-5-11,68.7,55.6,43.5,41.4,35.3,29.4,69,48,37,29.47,29.15,17,4,17,0.00
2012-5-12,81.1,62.3,45.7,50.3,38.6,27.8,53,42,34,29.62,29.47,12,2,12,0.00
2012-5-13,85.6,66.2,56.1,54.1,45.7,39.0,74,49,33,29.59,29.53,12,1,12,0.00
2012-5-14,72.5,63.9,59.2,60.8,51.4,48.4,100,65,50,29.59,29.50,10,0,10,0.00
2012-5-15,67.1,60.7,57.6,61.0,54.9,48.3,100,83,53,29.59,29.38,9,0,9,1.22
2012-5-16,68.0,62.3,57.2,66.6,60.6,56.5,100,95,71,29.38,29.23,0,0,0,0.28
2012-5-17,77.0,62.1,50.7,58.8,42.3,34.8,100,51,35,29.56,29.29,16,3,16,0.00
2012-5-18,76.3,58.8,46.6,48.8,41.6,10.7,99,57,35,29.68,29.56,12,0,12,0.00
2012-5-19,85.5,62.2,44.1,53.1,41.9,34.0,75,49,33,29.62,29.53,12,1,12,0.00
2012-5-20,84.9,64.8,51.6,52.7,43.8,36.8,82,49,33,29.74,29.59,14,0,14,0.00
2012-5-21,69.3,60.8,54.0,63.1,54.4,37.1,100,81,52,29.68,29.47,12,0,12,0.00
2012-5-22,66.0,64.1,61.7,66.0,63.8,61.7,100,99,88,29.32,29.21,12,0,12,0.35
2012-5-23,78.6,66.3,60.3,64.4,57.5,52.2,100,77,45,29.47,29.23,0,0,0,0.00
2012-5-24,79.5,64.4,57.7,65.1,56.9,50.8,100,80,42,29.68,29.47,0,0,0,0.00
2012-5-25,70.5,63.2,57.2,65.7,60.7,57.2,100,92,65,29.68,29.56,0,0,0,0.00
2012-5-26,79.2,69.4,63.5,70.4,64.7,0.0,100,87,53,29.56,29.47,0,0,0,0.00
2012-5-27,72.1,65.5,62.8,66.0,62.1,50.1,100,90,46,29.56,29.44,0,0,0,0.00
2012-5-28,88.7,71.8,62.1,71.8,62.6,57.1,100,77,43,29.44,29.32,0,0,0,0.00
2012-5-29,90.1,72.8,62.4,69.4,62.6,58.2,100,75,40,29.35,29.12,0,0,0,0.00
2012-5-30,76.1,69.7,63.9,67.8,60.2,53.0,100,74,50,29.18,29.12,0,0,0,0.00
2012-5-31,88.7,71.4,60.8,64.8,53.4,41.8,100,59,33,29.29,29.09,0,0,0,0.00
2012-6-1,79.9,64.8,55.4,52.5,46.9,41.9,70,54,37,29.47,29.29,0,0,0,0.00
2012-6-2,65.5,61.2,55.4,65.5,61.0,46.3,100,99,70,31.33,29.06,12,0,12,1.26
2012-6-3,81.5,62.9,53.4,60.4,54.2,46.1,100,79,37,29.12,29.00,0,0,0,0.20
2012-6-4,59.9,53.3,48.9,54.1,47.2,41.2,100,81,54,29.18,29.00,16,0,16,0.04
2012-6-5,64.6,54.8,48.7,52.0,45.3,41.2,100,72,46,29.35,29.15,12,0,12,0.04
2012-6-6,71.6,58.1,50.2,60.8,52.7,44.6,100,86,44,29.41,29.32,0,0,0,0.20
2012-6-7,80.1,62.4,51.4,61.5,53.2,46.5,100,77,37,29.38,29.29,0,0,0,0.00
2012-6-8,81.5,66.1,54.5,66.3,53.8,49.1,100,69,40,29.35,29.21,0,0,0,0.00
2012-6-9,76.8,67.0,59.7,54.3,50.8,46.6,72,57,43,29.38,29.21,0,0,0,0.00
2012-6-10,85.8,69.6,58.1,62.3,51.7,41.4,100,57,34,29.65,29.38,0,0,0,0.00
2012-6-11,78.4,64.6,56.3,58.6,50.0,44.0,100,62,40,29.74,29.65,0,0,0,0.00
2012-6-12,71.4,63.7,57.0,63.1,57.0,50.9,100,81,53,29.68,29.38,0,0,0,0.00
2012-6-13,65.3,63.4,61.9,65.3,63.4,61.9,100,100,100,29.50,29.32,0,0,0,0.47
2012-6-14,80.8,65.1,57.0,64.4,54.7,43.9,100,73,39,29.71,29.50,0,0,0,0.00
2012-6-15,83.1,65.6,51.8,53.2,47.7,42.6,98,56,34,29.74,29.68,0,0,0,0.00
2012-6-16,82.4,64.3,51.6,55.0,48.5,42.3,92,59,37,29.77,29.68,0,0,0,0.00
2012-6-17,76.1,61.8,54.3,50.7,45.2,40.4,67,55,40,29.71,29.53,0,0,0,0.00
2012-6-18,77.0,61.9,52.2,55.6,48.6,43.8,100,64,41,29.59,29.56,0,0,0,0.00
2012-6-19,72.0,63.8,56.1,63.0,54.6,49.9,100,74,52,29.62,29.50,0,0,0,0.00
2012-6-20,97.0,78.9,63.0,70.2,64.9,61.3,100,67,38,29.50,29.29,0,0,0,0.00
2012-6-21,100.0,85.8,75.9,67.5,62.1,58.6,58,46,35,29.21,29.15,0,0,0,0.00
2012-6-22,95.9,78.5,68.5,67.9,63.8,56.3,95,64,36,29.21,29.12,0,0,0,0.00
2012-6-23,89.2,73.3,63.0,68.7,58.6,47.6,100,64,39,29.35,29.18,0,0,0,0.00
2012-6-24,88.7,71.8,59.2,57.6,51.9,47.0,79,52,33,29.41,29.29,0,0,0,0.00
2012-6-25,69.6,64.9,59.7,68.0,60.4,49.1,100,87,54,29.29,29.06,0,0,0,1.65
2012-6-26,76.1,64.3,54.0,60.4,49.3,43.6,100,61,42,29.09,29.00,0,0,0,0.00
2012-6-27,84.6,69.3,56.5,54.7,47.6,42.7,65,47,36,29.18,29.03,0,0,0,0.00
2012-6-28,89.4,73.1,61.3,62.4,51.3,42.7,88,48,35,29.21,29.12,0,0,0,0.00
2012-6-29,94.1,76.8,65.8,67.8,64.0,54.3,100,69,38,29.12,28.97,0,0,0,0.00
2012-6-30,94.8,78.4,68.7,62.3,56.1,47.8,70,47,34,29.15,29.06,0,0,0,0.00
2012-7-1,93.6,76.7,67.8,72.0,63.1,56.9,100,67,37,29.23,29.15,0,0,0,0.04
2012-7-2,90.1,73.3,63.9,67.7,58.5,53.1,99,63,38,29.29,29.23,0,0,0,0.00
2012-7-3,90.0,73.9,63.1,65.1,55.8,52.3,91,55,35,29.35,29.26,0,0,0,0.00
2012-7-4,87.1,75.1,67.5,75.2,65.8,59.7,100,76,45,29.26,29.12,0,0,0,0.08
2012-7-5,90.1,77.6,68.0,72.2,63.5,56.7,100,66,38,29.29,29.06,0,0,0,0.00
2012-7-6,91.0,75.9,64.0,67.3,61.9,57.4,100,67,38,29.32,29.26,0,0,0,0.00
2012-7-7,94.5,78.2,70.3,72.9,63.7,56.6,100,64,38,29.29,29.15,0,0,0,0.00
2012-7-8,92.7,78.0,67.3,62.6,59.0,54.9,82,54,34,29.26,29.21,0,0,0,0.00
2012-7-9,90.3,73.8,63.3,59.0,52.8,47.9,63,49,35,29.38,29.26,0,0,0,0.00
2012-7-10,89.1,73.0,60.4,59.6,54.6,47.7,90,55,33,29.53,29.38,0,0,0,0.00
2012-7-11,88.7,74.2,66.2,70.1,60.8,54.3,100,68,36,29.65,29.50,0,0,0,0.00
2012-7-12,90.5,74.1,64.0,70.7,60.3,50.7,100,67,35,29.65,29.59,0,0,0,0.00
2012-7-13,89.8,74.3,66.2,67.3,59.5,54.3,100,63,38,29.65,29.59,0,0,0,0.00
2012-7-14,92.7,76.9,68.7,71.4,60.9,55.1,100,61,37,29.62,29.53,0,0,0,0.00
2012-7-15,90.1,75.7,68.2,74.8,66.4,57.8,100,76,42,29.56,29.32,0,0,0,0.12
2012-7-16,93.0,78.9,69.6,75.4,66.3,60.2,100,70,38,29.32,29.15,0,0,0,0.24
2012-7-17,94.6,80.3,70.5,65.7,61.5,57.3,80,55,37,29.23,29.15,0,0,0,0.00
2012-7-18,99.7,80.4,71.2,76.5,67.1,60.4,100,68,37,29.29,29.15,0,0,0,0.00
2012-7-19,81.7,70.4,64.6,72.9,57.8,51.4,100,66,41,29.41,29.26,0,0,0,0.04
2012-7-20,66.0,63.8,60.4,65.5,62.6,57.7,100,96,77,29.50,29.41,0,0,0,0.31
2012-7-21,84.6,67.5,57.2,67.5,56.8,49.6,100,74,38,29.56,29.47,0,0,0,0.00
2012-7-22,84.2,69.6,59.5,66.0,58.1,52.4,100,71,40,29.59,29.56,0,0,0,0.00
2012-7-23,84.2,72.1,63.9,73.4,66.0,59.8,100,84,49,29.56,29.21,0,0,0,0.04
2012-7-24,94.8,79.0,69.4,75.6,64.5,51.4,100,66,36,29.21,28.97,0,0,0,0.00
2012-7-25,88.9,73.0,61.3,57.6,50.3,45.0,55,46,35,29.26,29.09,0,0,0,0.00
2012-7-26,84.2,73.5,68.5,71.9,62.5,51.2,100,70,50,29.21,29.03,0,0,0,0.00
2012-7-27,93.0,75.5,69.1,75.8,69.4,62.6,100,85,39,29.32,29.06,0,0,0,0.59
2012-7-28,77.5,70.1,66.9,74.7,67.9,59.8,100,94,55,29.38,29.32,0,0,0,2.01
2012-7-29,81.1,68.8,62.6,70.9,65.2,58.1,100,90,50,29.50,29.32,0,0,0,0.39
2012-7-30,83.8,68.3,60.8,70.3,60.2,53.2,100,79,41,29.56,29.50,0,0,0,0.00
2012-7-31,74.5,67.9,61.9,67.5,61.3,55.9,100,81,55,29.56,29.32,0,0,0,0.00
2012-8-1,85.1,71.8,64.4,72.0,64.9,29.6,100,82,20,29.35,29.26,0,0,0,0.00
2012-8-2,89.8,76.5,70.0,73.8,66.8,59.8,100,76,41,29.35,29.26,0,0,0,0.00
2012-8-3,94.1,79.1,71.8,76.1,69.1,62.0,100,76,40,29.53,29.35,0,0,0,0.00
2012-8-4,92.8,79.4,72.7,77.7,70.0,61.0,100,77,40,29.68,29.53,0,0,0,0.00
2012-8-5,88.5,78.6,72.5,77.7,71.5,65.3,100,81,49,29.68,29.41,0,0,0,0.39
2012-8-6,89.6,76.3,66.0,75.4,63.3,52.6,100,69,38,29.41,29.35,0,0,0,0.04
2012-8-7,85.8,68.2,61.2,66.8,58.8,54.7,100,74,39,29.44,29.38,0,0,0,0.00
2012-8-8,88.0,74.0,66.9,74.1,64.6,57.9,100,76,41,29.44,29.38,0,0,0,0.00
2012-8-9,89.6,76.5,70.5,75.4,68.4,62.1,100,80,44,29.41,29.32,0,0,0,0.00
2012-8-10,84.7,75.0,70.7,77.2,72.3,64.6,100,93,53,29.35,29.21,0,0,0,0.79
2012-8-11,84.6,76.3,72.5,79.2,71.7,63.3,100,87,53,29.35,29.23,0,0,0,0.04
2012-8-12,85.1,75.2,71.1,75.9,69.5,62.7,100,85,51,29.35,29.29,0,0,0,0.08
2012-8-13,88.9,73.7,65.1,71.1,61.9,55.8,100,70,39,29.41,29.35,0,0,0,0.00
2012-8-14,86.9,73.5,64.8,69.9,61.9,55.2,100,70,40,29.41,29.32,0,0,0,0.00
2012-8-15,83.3,71.1,64.8,71.2,65.6,58.3,100,85,49,29.35,29.26,0,0,0,1.02
2012-8-16,88.0,72.2,64.9,72.5,62.2,54.8,100,75,39,29.29,29.23,0,0,0,0.00
2012-8-17,88.2,74.2,63.5,69.1,60.4,55.5,98,65,39,29.29,29.21,0,0,0,0.00
2012-8-18,71.1,65.8,62.2,68.7,64.7,60.3,100,97,69,29.35,29.23,0,0,0,0.55
2012-8-19,77.4,64.8,55.0,62.2,53.1,47.4,100,70,41,29.38,29.32,0,0,0,0.00
2012-8-20,79.7,67.5,59.9,60.8,53.7,49.3,94,63,41,29.35,29.26,0,0,0,0.00
2012-8-21,86.2,70.6,64.4,63.1,57.5,51.5,95,66,38,29.53,29.35,0,0,0,0.00
2012-8-22,86.5,70.2,60.4,64.3,56.9,52.5,100,66,38,29.59,29.53,0,0,0,0.00
2012-8-23,90.1,72.4,64.0,70.3,61.4,55.4,100,73,39,29.62,29.56,0,0,0,0.00
2012-8-24,90.7,73.3,64.8,68.7,61.4,54.5,100,71,38,29.68,29.56,0,0,0,0.00
2012-8-25,86.2,71.9,64.6,69.7,58.7,51.2,100,67,39,29.80,29.65,0,0,0,0.00
2012-8-26,87.3,69.0,61.0,65.9,58.1,51.1,100,73,38,29.83,29.71,0,0,0,0.00
2012-8-27,86.0,70.4,59.2,73.2,62.2,52.6,100,78,45,29.71,29.41,0,0,0,0.00
2012-8-28,88.2,75.7,67.6,73.9,64.1,53.1,100,71,40,29.41,29.18,10,0,10,0.04
2012-8-29,80.8,66.7,57.9,59.5,48.6,42.6,90,54,34,29.44,29.29,0,0,0,0.00
2012-8-30,84.2,66.3,54.7,54.2,48.5,43.8,71,54,33,29.53,29.44,0,0,0,0.00
2012-8-31,91.4,73.2,61.7,62.1,55.0,48.0,85,54,37,29.47,29.29,0,0,0,0.00
2012-9-1,91.6,74.4,64.8,62.1,56.1,52.6,66,54,38,29.56,29.32,0,0,0,0.00
2012-9-2,86.0,68.7,61.2,66.0,56.0,50.6,100,67,39,29.62,29.50,0,0,0,0.00
2012-9-3,83.5,66.3,57.6,65.7,55.7,49.4,100,73,40,29.68,29.59,0,0,0,0.00
2012-9-4,75.2,70.2,64.6,75.2,69.3,55.0,100,97,72,29.62,29.35,0,0,0,2.05
2012-9-5,75.4,73.4,69.3,75.4,73.5,69.3,100,100,100,29.35,29.23,4,0,4,1.10
2012-9-6,76.1,69.6,64.0,72.5,66.1,59.2,100,90,61,29.38,29.26,0,0,0,0.00
2012-9-7,87.1,73.5,68.0,75.0,67.9,61.7,100,85,46,29.41,29.35,0,0,0,0.00
2012-9-8,77.4,72.9,63.1,75.3,69.4,60.8,100,90,58,29.38,29.12,6,0,6,0.12
2012-9-9,77.2,64.4,60.4,63.1,55.7,47.3,100,77,41,29.32,29.21,0,0,0,0.08
2012-9-10,78.3,61.6,52.3,60.2,48.2,38.1,100,66,38,29.56,29.32,8,0,8,0.00
2012-9-11,78.6,58.1,46.8,50.6,43.1,38.5,79,59,35,29.74,29.56,0,0,0,0.00
2012-9-12,85.8,63.9,51.8,61.2,51.4,41.8,99,67,36,29.83,29.71,0,0,0,0.00
2012-9-13,88.9,67.4,60.3,68.5,58.3,51.7,100,77,38,29.83,29.74,0,0,0,0.00
2012-9-14,89.6,67.7,61.0,68.7,59.0,52.1,100,78,38,29.74,29.53,0,0,0,0.00
2012-9-15,84.2,64.8,54.1,63.7,51.4,40.7,100,66,36,29.53,29.41,15,0,15,0.00
2012-9-16,85.6,60.3,50.0,53.3,43.2,39.9,76,55,33,29.53,29.41,9,0,9,0.00
2012-9-17,86.4,61.3,48.9,56.5,48.2,42.1,95,65,36,29.53,29.47,0,0,0,0.00
2012-9-18,71.8,66.3,57.9,71.2,62.8,56.2,100,89,65,29.47,29.12,16,1,16,0.24
2012-9-19,85.1,64.0,51.6,70.9,50.9,40.0,100,66,33,29.59,29.12,12,1,12,1.18
2012-9-20,84.4,57.4,47.3,54.5,45.5,42.2,100,68,36,29.68,29.56,0,0,0,0.00
2012-9-21,82.2,57.9,48.9,54.8,48.7,44.3,100,76,37,29.59,29.44,0,0,0,0.00
2012-9-22,87.6,51.5,-47.2,76.5,21.9,-54.1,100,64,20,29.44,29.38,0,0,0,0.00
2012-9-23,86.7,29.9,-33.2,53.9,11.0,-54.1,90,42,20,274.36,29.38,0,0,364,0.00
2012-9-24,85.6,54.0,43.7,53.6,42.0,34.1,100,68,33,29.56,29.50,0,0,0,0.00
2012-9-25,74.8,59.1,49.1,50.1,42.1,32.8,71,54,41,29.62,29.56,12,0,12,0.00
2012-9-26,72.7,65.4,59.0,66.0,57.0,49.6,100,76,52,29.59,29.44,15,0,15,0.00
2012-9-27,79.5,65.8,59.7,65.7,56.7,46.8,100,76,40,29.65,29.44,10,0,10,0.00
2012-9-28,64.8,59.6,56.1,64.8,53.9,44.8,100,83,57,29.65,29.32,20,1,20,1.10
2012-9-29,58.6,57.1,55.9,58.6,57.1,55.9,100,100,100,29.32,29.26,10,1,10,0.12
2012-9-30,66.2,56.8,51.8,58.8,53.6,46.4,100,90,55,29.29,29.12,7,0,7,0.00
2012-10-1,72.9,57.0,48.9,51.1,47.1,41.6,100,73,42,29.38,29.15,12,0,12,0.00
2012-10-2,68.4,60.1,55.2,62.2,52.9,45.9,100,79,52,29.47,29.38,0,0,0,0.28
2012-10-3,70.7,65.6,61.7,69.4,65.2,61.7,100,99,85,29.56,29.41,0,0,0,0.04
2012-10-4,68.2,65.0,62.4,66.3,63.9,58.0,100,96,73,29.56,29.44,0,0,0,0.04
2012-10-5,81.0,65.9,60.6,67.5,58.5,47.9,100,81,40,29.47,29.35,0,0,0,0.08
2012-10-6,78.3,63.7,50.4,67.1,55.9,41.7,100,79,44,29.35,29.15,15,0,15,0.08
2012-10-7,56.5,49.1,43.7,50.4,42.0,33.9,100,78,48,29.50,29.35,0,0,0,0.08
2012-10-8,51.6,45.0,41.9,51.6,44.9,41.9,100,100,74,29.68,29.47,0,0,0,0.04
2012-10-9,56.8,54.2,50.4,51.0,43.8,40.8,99,68,59,29.65,29.53,12,0,12,0.04
2012-10-10,65.7,55.7,49.8,65.7,53.0,35.0,100,92,56,29.53,29.15,16,0,16,0.28
2012-10-11,63.5,49.5,42.3,39.1,33.7,30.3,75,55,38,29.59,29.26,16,2,16,0.04
2012-10-12,54.5,46.4,36.1,38.4,31.7,22.1,75,57,46,29.83,29.44,21,2,21,0.04
2012-10-13,60.6,40.8,29.8,33.9,24.9,20.2,71,54,37,29.94,29.74,11,0,11,0.04
2012-10-14,71.2,57.8,44.8,58.7,44.6,31.3,97,62,43,29.77,29.38,15,2,19,0.04
2012-10-15,70.7,64.0,59.5,63.9,56.5,50.9,100,78,53,29.38,29.03,15,1,15,0.04
2012-10-16,64.6,52.0,41.5,61.7,37.8,28.3,100,61,38,29.29,28.97,21,5,21,0.04
2012-10-17,65.5,46.6,35.1,41.9,34.1,28.0,100,64,38,29.41,29.26,11,0,11,0.04
2012-10-18,73.6,54.2,43.3,57.7,46.5,39.2,100,79,41,29.50,29.41,11,0,11,0.04
2012-10-19,66.4,62.6,57.6,66.4,62.1,54.3,100,98,76,29.47,29.12,15,1,15,0.35
2012-10-20,75.9,63.5,52.3,66.9,56.8,37.1,100,82,41,29.18,29.03,15,1,15,2.09
2012-10-21,66.9,53.1,43.9,42.6,36.7,33.4,77,55,40,29.35,29.18,20,2,20,0.04
2012-10-22,66.4,54.7,46.8,42.9,36.7,33.8,61,51,40,29.44,29.35,21,4,21,0.04
2012-10-23,64.9,54.4,46.4,53.2,40.3,33.8,100,61,43,29.53,29.44,11,1,11,0.08
2012-10-24,55.6,52.5,49.3,53.2,43.6,36.3,100,74,51,29.65,29.53,8,0,8,0.04
2012-10-25,65.3,53.4,47.3,46.0,39.5,34.6,89,60,40,29.74,29.65,11,0,11,0.04
2012-10-26,66.2,56.5,47.8,51.3,45.5,39.6,100,69,44,29.68,29.56,0,0,0,0.04
2012-10-27,66.4,59.1,53.2,47.6,45.1,37.6,72,60,49,29.56,29.35,12,1,12,0.04
2012-10-28,60.4,54.2,51.1,51.9,44.2,36.8,100,70,54,29.38,29.06,26,6,26,0.04
2012-10-29,61.9,55.7,51.6,61.9,55.4,50.5,100,99,88,29.06,28.29,48,12,48,0.63
2012-11-4,49.3,40.0,34.3,28.3,23.8,22.0,61,52,44,29.35,29.26,16,6,16,0.71
2012-11-5,60.4,38.5,27.1,34.1,20.6,12.3,61,49,37,29.56,29.32,21,7,21,0.71
2012-11-6,58.3,33.0,22.3,32.2,16.0,11.2,64,50,37,29.65,29.53,16,2,16,0.71
2012-11-7,38.7,33.5,29.5,33.3,24.6,16.1,100,71,53,29.53,29.03,39,12,39,0.71
2012-11-8,39.6,36.0,31.3,31.9,25.6,23.0,81,66,57,29.18,28.94,46,19,46,0.71
2012-11-9,64.2,43.2,34.5,36.7,23.8,19.6,60,47,36,29.56,29.18,26,11,26,0.71
2012-11-10,69.3,46.7,36.7,41.9,29.3,21.9,64,51,37,29.88,29.56,17,2,17,0.71
2012-11-11,67.6,52.8,43.2,52.2,40.8,31.9,100,66,42,29.97,29.88,17,2,17,0.71
2012-11-12,70.7,58.4,49.8,63.9,52.8,46.3,100,84,52,29.94,29.68,197,4,197,0.71
2012-11-13,63.0,50.1,38.7,63.0,46.4,25.9,100,88,58,29.85,29.56,24,9,24,0.71
2012-11-14,64.8,39.7,31.3,36.5,23.1,17.1,69,52,35,29.97,29.85,25,7,25,0.71
2012-11-15,54.9,36.6,29.8,32.6,23.1,17.4,71,58,43,29.88,29.71,26,4,26,0.71
2012-11-16,51.4,37.9,31.5,30.7,23.9,16.9,83,58,41,29.85,29.71,16,3,16,0.71
2012-11-17,68.4,38.9,28.6,41.1,23.4,16.5,71,55,37,30.12,29.85,15,4,15,0.71
2012-11-18,68.0,37.7,26.4,40.5,26.8,22.6,100,68,37,30.18,30.06,15,4,15,0.71
2012-11-19,54.5,37.3,28.0,34.4,29.0,23.1,100,74,46,30.06,29.68,17,6,17,0.71
2012-11-20,62.1,39.0,28.6,39.4,30.3,25.9,100,75,41,29.68,29.53,12,4,12,0.71
2012-11-21,63.1,40.7,32.4,39.4,29.3,21.6,99,66,41,29.65,29.56,17,4,17,0.71
2012-11-22,70.9,44.0,33.4,44.7,37.1,33.3,100,81,39,29.71,29.56,12,3,12,0.71
2012-11-23,56.3,45.2,36.3,48.2,40.2,34.9,100,85,49,29.56,29.06,12,1,12,0.71
2012-11-24,55.9,41.6,31.3,48.0,25.4,11.4,100,55,38,29.12,28.97,35,10,35,0.71
2012-11-25,49.5,32.7,24.8,25.5,14.9,10.6,60,48,39,29.29,29.12,28,5,28,0.71
2012-11-26,56.5,36.8,28.8,30.4,18.4,14.1,55,47,37,29.68,29.29,28,4,28,0.71
2012-11-27,36.9,33.7,29.7,34.5,27.4,15.1,100,80,50,29.74,29.59,8,0,8,0.71
2012-11-28,49.3,33.8,27.5,33.3,25.7,16.0,100,75,48,29.62,29.53,14,2,14,0.71
2012-11-29,47.3,33.3,24.4,25.2,18.9,15.7,76,56,42,29.74,29.62,22,3,22,0.71
2012-11-30,47.3,34.1,29.7,27.9,18.5,14.6,58,52,44,29.97,29.68,17,4,17,0.71
2012-12-1,40.6,34.8,31.1,38.2,25.0,15.4,91,68,51,30.03,29.88,20,5,20,0.71
2012-12-2,56.7,46.3,36.1,50.5,40.8,32.8,100,83,56,29.88,29.50,15,3,15,0.71
2012-12-3,66.0,49.3,39.0,50.2,40.2,31.1,100,74,43,29.71,29.47,22,4,22,0.71
2012-12-4,57.7,47.4,34.5,57.7,47.1,32.5,100,99,79,29.74,29.41,12,3,15,0.00
2012-12-5,60.1,47.7,31.6,57.2,34.7,12.8,100,64,41,29.56,29.29,31,10,31,0.71
2012-12-6,51.6,31.9,24.4,26.7,13.0,7.6,57,45,39,29.77,29.56,22,5,22,0.71
2012-12-7,46.4,38.1,26.4,45.3,28.8,12.9,100,71,49,29.71,29.44,10,0,10,0.71
2012-12-8,51.4,48.0,45.3,51.4,48.0,45.3,100,100,100,29.44,29.23,10,1,10,0.71
2012-12-9,54.3,44.3,39.2,48.0,37.5,27.4,100,80,46,29.68,29.38,21,5,21,0.71
2012-12-10,60.4,54.6,43.9,60.3,54.6,43.9,100,100,100,29.47,28.91,17,3,17,0.91
2012-12-11,58.3,43.2,32.4,56.3,31.7,17.8,100,65,42,29.59,28.94,26,8,26,0.00
2012-12-12,47.5,34.0,27.5,26.3,19.2,16.2,64,55,42,29.88,29.59,16,4,16,0.00
2012-12-13,58.5,34.2,26.4,33.0,21.2,17.0,78,60,40,29.91,29.74,12,2,12,0.00
2012-12-14,55.9,36.7,28.2,32.6,21.9,17.6,77,55,40,29.74,29.50,15,2,15,0.00
2012-12-15,57.4,36.4,28.8,33.1,23.6,19.5,79,60,40,29.74,29.59,17,2,17,0.00
2012-12-16,39.0,36.0,33.4,39.0,29.7,21.6,100,79,59,29.71,29.38,26,6,26,0.20
2012-12-17,45.0,42.4,38.1,45.0,42.4,38.1,100,100,100,29.38,29.09,21,5,21,0.28
2012-12-18,51.6,45.8,42.3,51.6,45.1,29.1,100,98,65,29.09,28.79,17,3,17,0.94
2012-12-19,51.6,41.3,37.4,30.9,25.3,21.1,63,53,44,29.44,28.88,35,13,35,0.94
2012-12-20,57.9,37.8,28.6,32.7,23.6,18.7,84,57,40,29.62,29.32,21,4,21,0.94
2012-12-21,55.6,45.4,37.0,55.6,41.0,25.9,100,86,58,29.38,28.47,33,9,33,0.94
2012-12-22,42.1,34.2,31.1,23.5,16.8,13.6,61,49,41,29.09,28.76,37,13,37,0.75
2012-12-23,45.0,34.0,29.7,23.3,16.8,14.0,61,49,42,29.29,29.09,29,3,29,0.75
2012-12-24,43.5,31.8,27.5,22.5,15.4,11.8,71,50,43,29.47,29.29,17,4,17,0.00
2012-12-25,35.4,31.7,25.0,34.5,28.6,15.2,100,89,66,29.65,29.32,16,3,16,0.16
2012-12-26,37.8,29.1,19.8,34.3,19.5,10.1,100,69,49,29.71,29.09,31,9,31,0.00
2012-12-27,45.9,38.1,30.0,45.9,35.9,18.0,100,93,61,29.09,28.59,42,13,42,1.54
2012-12-28,46.4,29.4,24.3,24.1,15.9,11.6,72,57,42,29.44,29.06,33,10,33,0.00
2012-12-29,35.6,29.5,23.9,32.4,23.9,15.9,100,81,60,29.41,28.73,17,6,17,0.00
2012-12-30,31.6,26.1,20.1,29.7,13.8,3.3,100,61,46,29.44,28.79,36,14,36,0.00
2012-12-31,37.2,27.9,15.8,18.9,12.4,2.1,60,52,47,29.50,29.21,21,4,21,0.00
2013-1-1,38.5,30.8,19.8,21.0,14.3,1.9,61,50,44,29.32,29.15,25,8,25,0.00